Voltar ao catálogo

FENGYUN 1C DEB

AtivoSSO
NORAD 29792·DEBRIS·🇨🇳 China

Lançado May 10, 1999 de Taiyuan Satellite Launch Center

Loading…

Próximas Passagens (próximas 24 horas)

TLE

AtualizadoSource: Space-Track

Época: Sep 14, 2026, 01:54 UTC

1 29792U 99025CJ  26257.07957048  .00001241  00000-0  64210-3 0  9990
2 29792  98.7347 307.5114 0047385 328.6973  31.1382 14.16186887  8360

Acompanhe FENGYUN 1C DEB em tempo real com AllMySat

Download on the App Store